Weather History for Kenosha, WI

Change the Weather History Date:

Tuesday, January 1, 2013

  Actual Average Record
Temperature  
Mean Temperature 12 °F -  
Max Temperature 18 °F 28 °F 46 °F (1950)
Min Temperature 7 °F 13 °F -12 °F (1968)
Degree Days  
Heating Degree Days 52    
Moisture  
Dew Point 2 °F    
Average Humidity 67    
Maximum Humidity 73    
Minimum Humidity 54    
Precipitation  
Precipitation 0.00 in - - ()
Sea Level Pressure  
Sea Level Pressure 30.21 in    
Wind  
Wind Speed 8 mph (WNW)    
Max Wind Speed 10 mph    
Max Gust Speed -    
Visibility 10 miles    
Events      
Averages and records for this station are not official NWS values.
T = Trace of Precipitation, MM = Missing Value Source: NWS Daily Summary

Daily Weather History Graph

Daily Weather History Graph

Search for Another Location

Airport:

Trip Planner

Search our weather history database for the weather conditions in past years. The results will help you decide how hot, cold, wet, or windy it might be!

Date:

Astronomy

Jan. 01, 2013 Rise Set
Actual Time 7:21 AM CST 4:29 PM CST
Civil Twilight 6:49 AM CST 5:01 PM CST
Nautical Twilight 6:14 AM CST 5:36 PM CST
Astronomical Twilight 5:40 AM CST 6:11 PM CST
Moon 9:06 PM CST (1/1) 9:28 AM CST (1/1)
Length of Visible Light 10h 11m
Length of Day
9h 07m
Waning Gibbous, 83% of the Moon is Illuminated
Jan 1
Waning Gibbous
Jan 4
Last Quarter
Jan 11
New
Jan 18
First Quarter
Jan 26
Full

Hourly Weather History & Observations

Time (CST) Temp. Windchill Dew Point Humidity Pressure Visibility Wind Dir Wind Speed Gust Speed Precip Events Conditions
12:53 AM 12.9 °F 2.6 °F 3.9 °F 67% 30.17 in 10.0 mi NW 6.9 mph - N/A   Partly Cloudy
1:53 AM 12.0 °F -1.3 °F 3.9 °F 70% 30.17 in 10.0 mi NW 10.4 mph - N/A   Mostly Cloudy
2:53 AM 10.9 °F -1.8 °F 3.0 °F 70% 30.18 in 10.0 mi NW 9.2 mph - N/A   Clear
3:53 AM 10.0 °F -1.9 °F 1.9 °F 70% 30.19 in 10.0 mi NW 8.1 mph - N/A   Clear
4:53 AM 9.0 °F -3.2 °F 1.0 °F 70% 30.19 in 10.0 mi NW 8.1 mph - N/A   Clear
5:53 AM 8.1 °F -4.3 °F 1.0 °F 73% 30.22 in 10.0 mi NW 8.1 mph - N/A   Clear
6:53 AM 7.0 °F -4.5 °F -0.0 °F 73% 30.24 in 10.0 mi NW 6.9 mph - N/A   Clear
7:53 AM 7.0 °F -3.3 °F -0.0 °F 73% 30.25 in 10.0 mi NW 5.8 mph - N/A   Clear
8:53 AM 9.0 °F -5.1 °F 1.0 °F 70% 30.26 in 10.0 mi NNW 10.4 mph - N/A   Clear
9:53 AM 12.0 °F 0.5 °F 3.0 °F 67% 30.24 in 10.0 mi NNW 8.1 mph - N/A   Clear
10:53 AM 15.1 °F 6.4 °F 5.0 °F 64% 30.23 in 10.0 mi NW 5.8 mph - N/A   Clear
11:53 AM 16.0 °F 5.3 °F 3.9 °F 59% 30.23 in 10.0 mi NW 8.1 mph - N/A   Clear
12:53 PM 18.0 °F 6.1 °F 5.0 °F 57% 30.22 in 10.0 mi West 10.4 mph - N/A   Clear
1:53 PM 18.0 °F 6.1 °F 5.0 °F 57% 30.20 in 10.0 mi WNW 10.4 mph - N/A   Clear
2:53 PM 17.1 °F 5.8 °F 3.0 °F 54% 30.20 in 10.0 mi NW 9.2 mph - N/A   Clear
3:53 PM 16.0 °F 4.4 °F 3.0 °F 57% 30.20 in 10.0 mi NW 9.2 mph - N/A   Clear
4:53 PM 12.0 °F 5.9 °F 1.9 °F 64% 30.21 in 10.0 mi West 3.5 mph - N/A   Clear
5:53 PM 10.0 °F 0.4 °F 1.0 °F 67% 30.21 in 10.0 mi West 5.8 mph - N/A   Clear
6:53 PM 9.0 °F -2.2 °F 1.0 °F 70% 30.22 in 10.0 mi West 6.9 mph - N/A   Clear
7:53 PM 9.0 °F -3.2 °F 1.0 °F 70% 30.21 in 10.0 mi West 8.1 mph - N/A   Clear
8:53 PM 9.0 °F -4.2 °F 1.0 °F 70% 30.20 in 10.0 mi West 9.2 mph - N/A   Clear
9:53 PM 7.0 °F -4.5 °F -0.0 °F 73% 30.19 in 10.0 mi West 6.9 mph - N/A   Clear
10:53 PM 7.0 °F -4.5 °F -0.0 °F 73% 30.20 in 10.0 mi WSW 6.9 mph - N/A   Clear
11:53 PM 7.0 °F 0.1 °F -0.0 °F 73% 30.19 in 10.0 mi SW 3.5 mph - N/A   Clear